Time,TemperatureF,DewpointF,PressureIn,WindDirection,WindDirectionDegrees,WindSpeedMPH,WindSpeedGustMPH,Humidity,HourlyPrecipIn,Conditions,Clouds,dailyrainin,SolarRadiationWatts/m^2,SoftwareType,DateUTC
2013-03-15 00:00:00,47.3,19.0,30.09,West,277,0.0,6.0,32,0.00,,CLR,0.00,0.00,VWS V14.01,2013-03-15 04:00:00,
2013-03-15 00:05:00,47.0,25.1,30.09,West,273,1.0,2.0,42,0.00,,BKN110,0.00,0.00,VWS V14.01,2013-03-15 04:05:00,
2013-03-15 00:10:00,46.0,21.2,30.09,West,272,2.0,5.0,37,0.00,,BKN110,0.00,0.00,VWS V14.01,2013-03-15 04:10:00,
2013-03-15 00:15:00,45.8,21.0,30.09,West,275,0.0,5.0,37,0.00,,BKN110,0.00,0.00,VWS V14.01,2013-03-15 04:15:00,
2013-03-15 00:20:00,45.5,23.2,30.09,West,268,4.0,5.0,41,0.00,,BKN110,0.00,0.00,VWS V14.01,2013-03-15 04:20:00,
2013-03-15 00:25:00,45.8,24.0,30.09,West,268,1.0,5.0,42,0.00,,BKN110,0.00,0.00,VWS V14.01,2013-03-15 04:25:00,
2013-03-15 00:30:00,46.0,24.2,30.10,West,271,0.0,5.0,42,0.00,,BKN110,0.00,0.00,VWS V14.01,2013-03-15 04:30:00,
2013-03-15 00:35:00,46.0,25.3,30.10,West,271,0.0,5.0,44,0.00,,BKN110,0.00,0.00,VWS V14.01,2013-03-15 04:35:00,
2013-03-15 00:40:00,45.5,23.8,30.10,West,276,0.0,5.0,42,0.00,,BKN110,0.00,0.00,VWS V14.01,2013-03-15 04:40:00,
2013-03-15 00:45:00,45.2,17.8,30.10,West,276,0.0,5.0,33,0.00,,BKN110,0.00,0.00,VWS V14.01,2013-03-15 04:45:00,
2013-03-15 00:50:00,45.1,18.4,30.10,West,277,0.0,5.0,34,0.00,,BKN110,0.00,0.00,VWS V14.01,2013-03-15 04:50:00,
2013-03-15 00:55:00,44.8,16.0,30.10,West,276,0.0,5.0,31,0.00,,BKN110,0.00,0.00,VWS V14.01,2013-03-15 04:55:00,
2013-03-15 01:00:00,44.6,18.0,30.10,West,276,0.0,5.0,34,0.00,,BKN110,0.00,0.00,VWS V14.01,2013-03-15 05:00:00,
2013-03-15 01:05:00,44.2,22.0,30.10,West,276,0.0,1.0,41,0.00,,CLR,0.00,0.00,VWS V14.01,2013-03-15 05:05:00,
2013-03-15 01:10:00,44.1,21.3,30.10,West,276,0.0,2.0,40,0.00,,CLR,0.00,0.00,VWS V14.01,2013-03-15 05:10:00,
2013-03-15 01:15:00,43.8,23.3,30.10,West,276,0.0,2.0,44,0.00,,CLR,0.00,0.00,VWS V14.01,2013-03-15 05:15:00,
2013-03-15 01:20:00,43.3,20.6,30.10,West,276,0.0,2.0,40,0.00,,CLR,0.00,0.00,VWS V14.01,2013-03-15 05:20:00,
2013-03-15 01:25:00,43.3,20.0,30.10,West,276,0.0,2.0,39,0.00,,CLR,0.00,0.00,VWS V14.01,2013-03-15 05:25:00,
2013-03-15 01:30:00,43.3,19.4,30.10,West,276,0.0,3.0,38,0.00,,CLR,0.00,0.00,VWS V14.01,2013-03-15 05:30:00,
2013-03-15 01:35:00,43.3,17.5,30.10,West,276,0.0,1.0,35,0.00,,CLR,0.00,0.00,VWS V14.01,2013-03-15 05:35:00,
2013-03-15 01:40:00,43.5,19.0,30.10,West,276,0.0,1.0,37,0.00,,CLR,0.00,0.00,VWS V14.01,2013-03-15 05:40:00,
2013-03-15 01:45:00,43.6,21.5,30.10,West,259,3.0,4.0,41,0.00,,CLR,0.00,0.00,VWS V14.01,2013-03-15 05:45:00,
2013-03-15 01:50:00,43.3,20.6,30.10,West,259,0.0,4.0,40,0.00,,CLR,0.00,0.00,VWS V14.01,2013-03-15 05:50:00,
2013-03-15 01:55:00,43.2,20.5,30.10,West,259,0.0,4.0,40,0.00,,CLR,0.00,0.00,VWS V14.01,2013-03-15 05:55:00,
2013-03-15 02:00:00,42.9,20.3,30.09,West,259,0.0,4.0,40,0.00,,CLR,0.00,0.00,VWS V14.01,2013-03-15 06:00:00,
2013-03-15 02:05:00,42.6,21.1,30.09,West,259,0.0,1.0,42,0.00,,CLR,0.00,0.00,VWS V14.01,2013-03-15 06:05:00,
2013-03-15 02:10:00,42.5,23.7,30.09,West,259,0.0,1.0,47,0.00,,CLR,0.00,0.00,VWS V14.01,2013-03-15 06:10:00,
2013-03-15 02:15:00,42.3,24.0,30.08,West,259,0.0,1.0,48,0.00,,CLR,0.00,0.00,VWS V14.01,2013-03-15 06:15:00,
2013-03-15 02:20:00,42.5,26.1,30.08,West,259,1.0,4.0,52,0.00,,CLR,0.00,0.00,VWS V14.01,2013-03-15 06:20:00,
2013-03-15 02:25:00,42.2,24.4,30.08,West,259,0.0,4.0,49,0.00,,CLR,0.00,0.00,VWS V14.01,2013-03-15 06:25:00,
2013-03-15 02:30:00,41.9,26.9,30.09,West,259,0.0,4.0,55,0.00,,CLR,0.00,0.00,VWS V14.01,2013-03-15 06:30:00,
2013-03-15 02:35:00,41.9,25.1,30.09,West,259,0.0,0.0,51,0.00,,CLR,0.00,0.00,VWS V14.01,2013-03-15 06:35:00,
2013-03-15 02:40:00,41.9,26.9,30.09,West,259,0.0,0.0,55,0.00,,CLR,0.00,0.00,VWS V14.01,2013-03-15 06:40:00,
2013-03-15 02:45:00,41.9,27.4,30.08,West,259,0.0,0.0,56,0.00,,CLR,0.00,0.00,VWS V14.01,2013-03-15 06:45:00,
2013-03-15 02:50:00,41.6,28.4,30.08,West,259,0.0,0.0,59,0.00,,CLR,0.00,0.00,VWS V14.01,2013-03-15 06:50:00,
2013-03-15 02:55:00,41.5,29.1,30.08,West,259,0.0,0.0,61,0.00,,CLR,0.00,0.00,VWS V14.01,2013-03-15 06:55:00,
2013-03-15 03:00:00,41.2,30.0,30.09,West,259,0.0,3.0,64,0.00,,CLR,0.00,0.00,VWS V14.01,2013-03-15 07:00:00,
2013-03-15 03:05:00,40.9,28.9,30.09,West,259,0.0,0.0,62,0.00,,CLR,0.00,0.00,VWS V14.01,2013-03-15 07:05:00,
2013-03-15 03:10:00,41.1,31.4,30.09,West,259,0.0,1.0,68,0.00,,CLR,0.00,0.00,VWS V14.01,2013-03-15 07:10:00,
2013-03-15 03:15:00,41.1,29.9,30.08,WSW,258,0.0,4.0,64,0.00,,CLR,0.00,0.00,VWS V14.01,2013-03-15 07:15:00,
2013-03-15 03:20:00,40.9,30.4,30.08,West,270,0.0,6.0,66,0.00,,CLR,0.00,0.00,VWS V14.01,2013-03-15 07:20:00,
2013-03-15 03:25:00,40.9,30.4,30.08,West,279,0.0,6.0,66,0.00,,CLR,0.00,0.00,VWS V14.01,2013-03-15 07:25:00,
2013-03-15 03:30:00,41.1,31.7,30.08,West,279,0.0,6.0,69,0.00,,CLR,0.00,0.00,VWS V14.01,2013-03-15 07:30:00,
2013-03-15 03:35:00,41.1,31.7,30.08,West,279,2.0,2.0,69,0.00,,CLR,0.00,0.00,VWS V14.01,2013-03-15 07:35:00,
2013-03-15 03:40:00,40.6,32.0,30.08,West,279,0.0,2.0,71,0.00,,CLR,0.00,0.00,VWS V14.01,2013-03-15 07:40:00,
2013-03-15 03:45:00,40.6,32.0,30.09,West,279,0.0,2.0,71,0.00,,CLR,0.00,0.00,VWS V14.01,2013-03-15 07:45:00,
2013-03-15 03:50:00,40.3,31.0,30.09,West,279,0.0,2.0,69,0.00,,CLR,0.00,0.00,VWS V14.01,2013-03-15 07:50:00,
2013-03-15 03:55:00,40.2,31.2,30.09,West,279,0.0,2.0,70,0.00,,CLR,0.00,0.00,VWS V14.01,2013-03-15 07:55:00,
2013-03-15 04:00:00,40.3,32.0,30.09,West,273,0.0,3.0,72,0.00,,CLR,0.00,0.00,VWS V14.01,2013-03-15 08:00:00,
2013-03-15 04:05:00,40.1,30.4,30.09,West,272,0.0,1.0,68,0.00,,CLR,0.00,0.00,VWS V14.01,2013-03-15 08:05:00,
2013-03-15 04:10:00,39.8,30.5,30.09,West,272,0.0,3.0,69,0.00,,CLR,0.00,0.00,VWS V14.01,2013-03-15 08:10:00,
2013-03-15 04:15:00,39.8,31.2,30.08,West,272,0.0,3.0,71,0.00,,CLR,0.00,0.00,VWS V14.01,2013-03-15 08:15:00,
2013-03-15 04:20:00,40.2,32.9,30.08,South,181,1.0,3.0,75,0.00,,CLR,0.00,0.00,VWS V14.01,2013-03-15 08:20:00,
2013-03-15 04:25:00,40.3,32.0,30.08,South,181,0.0,3.0,72,0.00,,CLR,0.00,0.00,VWS V14.01,2013-03-15 08:25:00,
2013-03-15 04:30:00,40.2,31.6,30.08,South,181,0.0,3.0,71,0.00,,CLR,0.00,0.00,VWS V14.01,2013-03-15 08:30:00,
2013-03-15 04:35:00,40.1,31.8,30.08,South,181,0.0,0.0,72,0.00,,CLR,0.00,0.00,VWS V14.01,2013-03-15 08:35:00,
2013-03-15 04:40:00,39.8,31.5,30.08,West,271,0.0,5.0,72,0.00,,CLR,0.00,0.00,VWS V14.01,2013-03-15 08:40:00,
2013-03-15 04:45:00,39.6,31.3,30.08,West,271,0.0,5.0,72,0.00,,CLR,0.00,0.00,VWS V14.01,2013-03-15 08:45:00,
2013-03-15 04:50:00,39.5,30.9,30.08,West,271,0.0,5.0,71,0.00,,CLR,0.00,0.00,VWS V14.01,2013-03-15 08:50:00,
2013-03-15 04:55:00,39.2,29.2,30.08,West,271,0.0,5.0,67,0.00,,CLR,0.00,0.00,VWS V14.01,2013-03-15 08:55:00,
2013-03-15 05:00:00,39.1,28.0,30.08,West,271,0.0,5.0,64,0.00,,CLR,0.00,0.00,VWS V14.01,2013-03-15 09:00:00,
2013-03-15 05:05:00,39.1,29.5,30.08,West,271,0.0,0.0,68,0.00,,CLR,0.00,0.00,VWS V14.01,2013-03-15 09:05:00,
2013-03-15 05:10:00,39.5,30.2,30.08,West,271,0.0,1.0,69,0.00,,CLR,0.00,0.00,VWS V14.01,2013-03-15 09:10:00,
2013-03-15 05:15:00,39.5,30.2,30.08,West,271,0.0,2.0,69,0.00,,CLR,0.00,0.00,VWS V14.01,2013-03-15 09:15:00,
2013-03-15 05:20:00,39.5,30.2,30.08,West,271,0.0,2.0,69,0.00,,CLR,0.00,0.00,VWS V14.01,2013-03-15 09:20:00,
2013-03-15 05:25:00,39.2,29.5,30.08,West,271,2.0,3.0,68,0.00,,CLR,0.00,0.00,VWS V14.01,2013-03-15 09:25:00,
2013-03-15 05:30:00,39.1,29.1,30.07,West,271,0.0,3.0,67,0.00,,CLR,0.00,0.00,VWS V14.01,2013-03-15 09:30:00,
2013-03-15 05:35:00,39.1,30.5,30.07,West,271,1.0,1.0,71,0.00,,CLR,0.00,0.00,VWS V14.01,2013-03-15 09:35:00,
2013-03-15 05:40:00,38.6,28.2,30.07,West,271,0.0,2.0,66,0.00,,CLR,0.00,0.00,VWS V14.01,2013-03-15 09:40:00,
2013-03-15 05:45:00,38.2,28.2,30.08,West,271,0.0,2.0,67,0.00,,CLR,0.00,0.00,VWS V14.01,2013-03-15 09:45:00,
2013-03-15 05:50:00,38.0,28.4,30.08,West,271,0.0,3.0,68,0.00,,CLR,0.00,0.00,VWS V14.01,2013-03-15 09:50:00,
2013-03-15 05:55:00,37.8,27.5,30.08,West,271,0.0,3.0,66,0.00,,CLR,0.00,0.00,VWS V14.01,2013-03-15 09:55:00,
2013-03-15 06:00:00,37.9,27.6,30.09,West,271,2.0,3.0,66,0.00,,CLR,0.00,0.00,VWS V14.01,2013-03-15 10:00:00,
2013-03-15 06:05:00,37.9,28.3,30.09,West,271,0.0,1.0,68,0.00,,CLR,0.00,0.00,VWS V14.01,2013-03-15 10:05:00,
2013-03-15 06:10:00,38.3,31.4,30.09,West,271,0.0,1.0,76,0.00,,CLR,0.00,0.00,VWS V14.01,2013-03-15 10:10:00,
2013-03-15 06:15:00,38.6,30.7,30.08,West,271,1.0,2.0,73,0.00,,CLR,0.00,0.00,VWS V14.01,2013-03-15 10:15:00,
2013-03-15 06:20:00,38.8,30.9,30.08,West,271,0.0,3.0,73,0.00,,CLR,0.00,0.00,VWS V14.01,2013-03-15 10:20:00,
2013-03-15 06:25:00,38.6,30.4,30.08,West,271,0.0,3.0,72,0.00,,CLR,0.00,0.00,VWS V14.01,2013-03-15 10:25:00,
2013-03-15 06:30:00,38.6,31.0,30.09,West,271,0.0,3.0,74,0.00,,CLR,0.00,0.00,VWS V14.01,2013-03-15 10:30:00,
2013-03-15 06:35:00,38.6,30.4,30.09,West,271,0.0,3.0,72,0.00,,CLR,0.00,0.00,VWS V14.01,2013-03-15 10:35:00,
2013-03-15 06:40:00,38.3,29.4,30.09,West,271,0.0,3.0,70,0.00,,CLR,0.00,0.00,VWS V14.01,2013-03-15 10:40:00,
2013-03-15 06:45:00,38.2,31.3,30.10,West,271,0.0,3.0,76,0.00,,CLR,0.00,0.00,VWS V14.01,2013-03-15 10:45:00,
2013-03-15 06:50:00,37.9,30.7,30.10,West,271,1.0,3.0,75,0.00,,CLR,0.00,0.00,VWS V14.01,2013-03-15 10:50:00,
2013-03-15 06:55:00,37.8,30.6,30.10,West,271,0.0,3.0,75,0.00,,CLR,0.00,0.00,VWS V14.01,2013-03-15 10:55:00,
2013-03-15 07:00:00,37.8,30.9,30.10,West,271,0.0,3.0,76,0.00,,CLR,0.00,0.00,VWS V14.01,2013-03-15 11:00:00,
2013-03-15 07:05:00,37.6,31.1,30.10,West,271,0.0,0.0,77,0.00,,CLR,0.00,0.00,VWS V14.01,2013-03-15 11:05:00,
2013-03-15 07:10:00,37.3,30.8,30.10,West,271,0.0,1.0,77,0.00,,CLR,0.00,0.00,VWS V14.01,2013-03-15 11:10:00,
2013-03-15 07:15:00,36.9,30.7,30.11,West,271,0.0,2.0,78,0.00,,CLR,0.00,0.00,VWS V14.01,2013-03-15 11:15:00,
2013-03-15 07:20:00,36.6,30.7,30.11,West,271,0.0,2.0,79,0.00,,CLR,0.00,0.00,VWS V14.01,2013-03-15 11:20:00,
2013-03-15 07:25:00,36.6,31.3,30.11,West,271,0.0,2.0,81,0.00,,CLR,0.00,0.00,VWS V14.01,2013-03-15 11:25:00,
2013-03-15 07:30:00,36.9,32.2,30.11,West,271,1.0,2.0,83,0.00,,CLR,0.00,0.00,VWS V14.01,2013-03-15 11:30:00,
2013-03-15 07:35:00,37.2,32.8,30.11,West,271,0.0,2.0,84,0.00,,CLR,0.00,0.00,VWS V14.01,2013-03-15 11:35:00,
2013-03-15 07:40:00,37.5,33.4,30.11,West,271,0.0,2.0,85,0.00,,CLR,0.00,0.00,VWS V14.01,2013-03-15 11:40:00,
2013-03-15 07:45:00,37.5,33.1,30.10,West,270,0.0,2.0,84,0.00,,CLR,0.00,7.00,VWS V14.01,2013-03-15 11:45:00,
2013-03-15 07:50:00,37.6,33.2,30.10,West,270,0.0,2.0,84,0.00,,CLR,0.00,11.00,VWS V14.01,2013-03-15 11:50:00,
2013-03-15 07:55:00,37.6,33.5,30.10,West,270,0.0,2.0,85,0.00,,CLR,0.00,16.00,VWS V14.01,2013-03-15 11:55:00,
2013-03-15 08:00:00,37.5,32.8,30.10,West,269,0.0,2.0,83,0.00,,CLR,0.00,19.00,VWS V14.01,2013-03-15 12:00:00,
2013-03-15 08:05:00,37.5,32.8,30.10,West,269,0.0,1.0,83,0.00,,CLR,0.00,35.00,VWS V14.01,2013-03-15 12:05:00,
2013-03-15 08:10:00,37.6,32.9,30.10,West,269,0.0,1.0,83,0.00,,CLR,0.00,49.00,VWS V14.01,2013-03-15 12:10:00,
2013-03-15 08:15:00,37.8,33.1,30.10,West,266,1.0,1.0,83,0.00,,CLR,0.00,63.00,VWS V14.01,2013-03-15 12:15:00,
2013-03-15 08:20:00,37.9,32.6,30.10,WSW,252,0.0,1.0,81,0.00,,CLR,0.00,79.00,VWS V14.01,2013-03-15 12:20:00,
2013-03-15 08:25:00,37.9,32.6,30.10,WSW,252,0.0,1.0,81,0.00,,CLR,0.00,97.00,VWS V14.01,2013-03-15 12:25:00,
2013-03-15 08:30:00,37.9,32.3,30.10,WSW,252,0.0,1.0,80,0.00,,CLR,0.00,118.00,VWS V14.01,2013-03-15 12:30:00,
2013-03-15 08:35:00,38.2,32.6,30.10,WSW,252,0.0,0.0,80,0.00,,CLR,0.00,130.00,VWS V14.01,2013-03-15 12:35:00,
2013-03-15 08:40:00,38.8,32.9,30.10,WSW,252,0.0,0.0,79,0.00,,CLR,0.00,144.00,VWS V14.01,2013-03-15 12:40:00,
2013-03-15 09:00:00,40.5,32.2,30.10,North,9,3.0,3.0,72,0.00,,CLR,0.00,209.00,VWS V14.01,2013-03-15 13:00:00,
2013-03-15 09:06:00,41.6,31.8,30.10,NNE,17,1.0,3.0,68,0.00,,CLR,0.00,225.00,VWS V14.01,2013-03-15 13:06:00,
2013-03-15 09:11:00,41.9,31.0,30.10,North,5,1.0,5.0,65,0.00,,CLR,0.00,243.00,VWS V14.01,2013-03-15 13:11:00,
2013-03-15 09:16:00,41.9,31.8,30.10,North,351,2.0,5.0,67,0.00,,CLR,0.00,258.00,VWS V14.01,2013-03-15 13:16:00,
2013-03-15 09:21:00,41.6,30.3,30.10,NNW,343,3.0,5.0,64,0.00,,CLR,0.00,276.00,VWS V14.01,2013-03-15 13:21:00,
2013-03-15 09:26:00,41.5,31.4,30.10,NNW,346,2.0,5.0,67,0.00,,CLR,0.00,294.00,VWS V14.01,2013-03-15 13:26:00,
2013-03-15 09:30:00,41.8,30.5,30.09,NNE,12,2.0,5.0,64,0.00,,CLR,0.00,308.00,VWS V14.01,2013-03-15 13:30:00,
2013-03-15 09:31:00,41.8,31.3,30.09,NNE,14,0.0,3.0,66,0.00,,CLR,0.00,311.00,VWS V14.01,2013-03-15 13:31:00,
2013-03-15 09:36:00,42.8,32.2,30.09,NNE,24,1.0,4.0,66,0.00,,CLR,0.00,336.00,VWS V14.01,2013-03-15 13:36:00,
2013-03-15 09:41:00,43.5,30.1,30.09,NNE,19,0.0,4.0,59,0.00,,CLR,0.00,345.00,VWS V14.01,2013-03-15 13:41:00,
2013-03-15 09:46:00,43.3,30.8,30.09,NNE,24,1.0,4.0,61,0.00,,CLR,0.00,359.00,VWS V14.01,2013-03-15 13:46:00,
2013-03-15 09:51:00,43.9,31.7,30.09,NE,36,0.0,4.0,62,0.00,,CLR,0.00,376.00,VWS V14.01,2013-03-15 13:51:00,
2013-03-15 09:56:00,44.1,31.5,30.09,NE,40,0.0,4.0,61,0.00,,CLR,0.00,392.00,VWS V14.01,2013-03-15 13:56:00,
2013-03-15 10:00:00,44.1,31.1,30.09,NE,49,1.0,4.0,60,0.00,,CLR,0.00,404.00,VWS V14.01,2013-03-15 14:00:00,
2013-03-15 10:01:00,44.1,31.1,30.09,NE,49,0.0,1.0,60,0.00,,CLR,0.00,408.00,VWS V14.01,2013-03-15 14:01:00,
2013-03-15 10:06:00,44.3,31.3,30.09,ESE,109,0.0,1.0,60,0.00,,CLR,0.00,425.00,VWS V14.01,2013-03-15 14:06:00,
2013-03-15 10:11:00,45.1,32.9,30.09,ESE,103,0.0,1.0,62,0.00,,CLR,0.00,438.00,VWS V14.01,2013-03-15 14:11:00,
2013-03-15 10:16:00,45.4,33.6,30.08,East,80,1.0,1.0,63,0.00,,CLR,0.00,455.00,VWS V14.01,2013-03-15 14:16:00,
2013-03-15 10:21:00,45.7,33.8,30.08,ENE,66,0.0,1.0,63,0.00,,CLR,0.00,471.00,VWS V14.01,2013-03-15 14:21:00,
2013-03-15 10:26:00,46.1,34.6,30.08,ENE,74,0.0,2.0,64,0.00,,CLR,0.00,487.00,VWS V14.01,2013-03-15 14:26:00,
2013-03-15 10:30:00,46.7,34.0,30.08,East,96,0.0,1.0,61,0.00,,CLR,0.00,503.00,VWS V14.01,2013-03-15 14:30:00,
2013-03-15 10:35:00,47.0,33.0,30.08,ESE,123,0.0,4.0,58,0.00,,CLR,0.00,517.00,VWS V14.01,2013-03-15 14:35:00,
2013-03-15 10:40:00,47.1,33.1,30.08,ESE,122,0.0,4.0,58,0.00,,CLR,0.00,527.00,VWS V14.01,2013-03-15 14:40:00,
2013-03-15 10:46:00,47.4,33.4,30.07,SE,126,0.0,4.0,58,0.00,,CLR,0.00,548.00,VWS V14.01,2013-03-15 14:46:00,
2013-03-15 10:50:00,47.9,33.4,30.07,SE,128,1.0,4.0,57,0.00,,CLR,0.00,561.00,VWS V14.01,2013-03-15 14:50:00,
2013-03-15 10:55:00,48.2,32.8,30.07,SE,127,0.0,4.0,55,0.00,,CLR,0.00,566.00,VWS V14.01,2013-03-15 14:55:00,
2013-03-15 11:00:00,48.6,34.5,30.06,ESE,116,0.0,0.0,58,0.00,,CLR,0.00,573.00,VWS V14.01,2013-03-15 15:00:00,
2013-03-15 11:05:00,48.6,34.9,30.06,ESE,108,3.0,5.0,59,0.00,,CLR,0.00,598.00,VWS V14.01,2013-03-15 15:05:00,
2013-03-15 11:10:00,48.6,33.6,30.06,ESE,106,1.0,5.0,56,0.00,,CLR,0.00,610.00,VWS V14.01,2013-03-15 15:10:00,
2013-03-15 11:15:00,49.5,34.0,30.05,ESE,110,3.0,5.0,55,0.00,,CLR,0.00,606.00,VWS V14.01,2013-03-15 15:15:00,
2013-03-15 11:20:00,49.6,35.9,30.05,ESE,115,2.0,5.0,59,0.00,,CLR,0.00,571.00,VWS V14.01,2013-03-15 15:20:00,
2013-03-15 11:25:00,50.4,37.0,30.05,SSE,148,5.0,6.0,60,0.00,,CLR,0.00,608.00,VWS V14.01,2013-03-15 15:25:00,
2013-03-15 11:30:00,51.1,34.1,30.05,SE,136,3.0,3.0,52,0.00,,CLR,0.00,649.00,VWS V14.01,2013-03-15 15:30:00,
2013-03-15 11:35:00,51.9,33.9,30.05,South,171,3.0,5.0,50,0.00,,CLR,0.00,652.00,VWS V14.01,2013-03-15 15:35:00,
2013-03-15 11:40:00,52.3,34.2,30.05,SE,145,0.0,5.0,50,0.00,,CLR,0.00,659.00,VWS V14.01,2013-03-15 15:40:00,
2013-03-15 11:45:00,53.1,35.0,30.04,South,169,1.0,6.0,50,0.00,,CLR,0.00,668.00,VWS V14.01,2013-03-15 15:45:00,
2013-03-15 11:50:00,53.3,34.1,30.04,SE,124,2.0,6.0,48,0.00,,CLR,0.00,694.00,VWS V14.01,2013-03-15 15:50:00,
2013-03-15 11:55:00,53.6,35.4,30.04,SE,139,5.0,6.0,50,0.00,,CLR,0.00,710.00,VWS V14.01,2013-03-15 15:55:00,
2013-03-15 12:00:00,54.2,35.5,30.03,SSE,149,0.0,1.0,49,0.00,,CLR,0.00,726.00,VWS V14.01,2013-03-15 16:00:00,
2013-03-15 12:05:00,54.8,35.0,30.03,SSE,147,1.0,9.0,47,0.00,,CLR,0.00,738.00,VWS V14.01,2013-03-15 16:05:00,
2013-03-15 12:10:00,55.4,35.5,30.03,SE,126,4.0,9.0,47,0.00,,CLR,0.00,738.00,VWS V14.01,2013-03-15 16:10:00,
2013-03-15 12:15:00,56.0,35.5,30.02,SE,128,4.0,9.0,46,0.00,,CLR,0.00,751.00,VWS V14.01,2013-03-15 16:15:00,
2013-03-15 12:20:00,56.6,35.5,30.02,SE,132,3.0,11.0,45,0.00,,CLR,0.00,754.00,VWS V14.01,2013-03-15 16:20:00,
2013-03-15 12:25:00,57.2,36.1,30.02,SSE,151,4.0,11.0,45,0.00,,CLR,0.00,768.00,VWS V14.01,2013-03-15 16:25:00,
2013-03-15 12:30:00,57.8,35.5,30.00,SSE,147,3.0,3.0,43,0.00,,CLR,0.00,721.00,VWS V14.01,2013-03-15 16:30:00,
2013-03-15 12:35:00,58.3,34.7,30.00,South,169,1.0,11.0,41,0.00,,CLR,0.00,782.00,VWS V14.01,2013-03-15 16:35:00,
2013-03-15 12:40:00,58.7,34.5,30.00,SE,131,5.0,11.0,40,0.00,,CLR,0.00,773.00,VWS V14.01,2013-03-15 16:40:00,
2013-03-15 12:45:00,59.2,35.5,29.99,SE,131,6.0,11.0,41,0.00,,CLR,0.00,795.00,VWS V14.01,2013-03-15 16:45:00,
2013-03-15 12:50:00,59.3,35.0,29.99,SE,133,6.0,13.0,40,0.00,,CLR,0.00,803.00,VWS V14.01,2013-03-15 16:50:00,
2013-03-15 12:55:00,59.5,35.8,29.99,WSW,252,0.0,13.0,41,0.00,,CLR,0.00,809.00,VWS V14.01,2013-03-15 16:55:00,
2013-03-15 13:00:00,59.9,36.2,29.98,ESE,115,0.0,1.0,41,0.00,,CLR,0.00,809.00,VWS V14.01,2013-03-15 17:00:00,
2013-03-15 13:05:00,60.4,34.7,29.98,South,175,2.0,6.0,38,0.00,,CLR,0.00,810.00,VWS V14.01,2013-03-15 17:05:00,
2013-03-15 13:10:00,61.0,37.2,29.98,SE,142,3.0,12.0,41,0.00,,CLR,0.00,816.00,VWS V14.01,2013-03-15 17:10:00,
2013-03-15 13:15:00,61.3,34.8,29.98,ESE,123,2.0,12.0,37,0.00,,CLR,0.00,724.00,VWS V14.01,2013-03-15 17:15:00,
2013-03-15 13:20:00,61.6,35.8,29.98,SE,144,2.0,12.0,38,0.00,,CLR,0.00,819.00,VWS V14.01,2013-03-15 17:20:00,
2013-03-15 13:25:00,62.1,35.5,29.98,SSE,156,6.0,12.0,37,0.00,,CLR,0.00,854.00,VWS V14.01,2013-03-15 17:25:00,
2013-03-15 13:30:00,62.4,37.1,29.96,SSE,168,0.0,0.0,39,0.00,,CLR,0.00,865.00,VWS V14.01,2013-03-15 17:30:00,
2013-03-15 13:35:00,62.9,36.2,29.96,West,260,0.0,10.0,37,0.00,,CLR,0.00,828.00,VWS V14.01,2013-03-15 17:35:00,
2013-03-15 13:40:00,63.1,35.7,29.96,South,173,4.0,10.0,36,0.00,,CLR,0.00,835.00,VWS V14.01,2013-03-15 17:40:00,
2013-03-15 13:45:00,63.2,36.5,29.95,WSW,240,0.0,13.0,37,0.00,,CLR,0.00,828.00,VWS V14.01,2013-03-15 17:45:00,
2013-03-15 13:50:00,63.4,35.3,29.95,SSE,151,4.0,13.0,35,0.00,,CLR,0.00,826.00,VWS V14.01,2013-03-15 17:50:00,
2013-03-15 13:55:00,63.9,35.7,29.95,ESE,119,4.0,13.0,35,0.00,,CLR,0.00,823.00,VWS V14.01,2013-03-15 17:55:00,
2013-03-15 14:00:00,64.3,34.6,29.93,SE,142,7.0,10.0,33,0.00,,CLR,0.00,817.00,VWS V14.01,2013-03-15 18:00:00,
2013-03-15 14:05:00,64.3,36.1,29.93,SE,145,3.0,12.0,35,0.00,,CLR,0.00,821.00,VWS V14.01,2013-03-15 18:05:00,
2013-03-15 14:10:00,64.5,34.8,29.93,SSE,160,0.0,12.0,33,0.00,,CLR,0.00,817.00,VWS V14.01,2013-03-15 18:10:00,
2013-03-15 14:15:00,65.2,36.2,29.93,SE,136,0.0,12.0,34,0.00,,CLR,0.00,796.00,VWS V14.01,2013-03-15 18:15:00,
2013-03-15 14:20:00,65.6,35.8,29.93,SE,145,4.0,12.0,33,0.00,,CLR,0.00,817.00,VWS V14.01,2013-03-15 18:20:00,
2013-03-15 14:25:00,65.8,35.2,29.93,South,178,3.0,12.0,32,0.00,,CLR,0.00,816.00,VWS V14.01,2013-03-15 18:25:00,
2013-03-15 14:30:00,66.1,35.4,29.91,SE,134,4.0,6.0,32,0.00,,CLR,0.00,821.00,VWS V14.01,2013-03-15 18:30:00,
2013-03-15 14:35:00,66.6,35.0,29.91,WNW,298,2.0,12.0,31,0.00,,CLR,0.00,817.00,VWS V14.01,2013-03-15 18:35:00,
2013-03-15 14:40:00,67.1,32.9,29.91,SSW,209,3.0,12.0,28,0.00,,CLR,0.00,803.00,VWS V14.01,2013-03-15 18:40:00,
2013-03-15 14:45:00,67.6,34.2,29.90,South,190,1.0,12.0,29,0.00,,CLR,0.00,791.00,VWS V14.01,2013-03-15 18:45:00,
2013-03-15 14:50:00,68.1,35.5,29.90,West,259,8.0,12.0,30,0.00,,CLR,0.00,788.00,VWS V14.01,2013-03-15 18:50:00,
2013-03-15 14:55:00,68.3,34.8,29.90,SSW,193,2.0,12.0,29,0.00,,CLR,0.00,763.00,VWS V14.01,2013-03-15 18:55:00,
2013-03-15 15:00:00,68.4,35.8,29.89,SW,219,5.0,7.0,30,0.00,,CLR,0.00,756.00,VWS V14.01,2013-03-15 19:00:00,
2013-03-15 15:05:00,68.4,37.4,29.89,SW,223,2.0,12.0,32,0.00,,CLR,0.00,761.00,VWS V14.01,2013-03-15 19:05:00,
2013-03-15 15:10:00,68.6,34.2,29.89,SSW,212,1.0,12.0,28,0.00,,CLR,0.00,756.00,VWS V14.01,2013-03-15 19:10:00,
2013-03-15 15:15:00,69.1,36.4,29.87,SSW,210,1.0,12.0,30,0.00,,CLR,0.00,768.00,VWS V14.01,2013-03-15 19:15:00,
2013-03-15 15:20:00,69.3,35.7,29.87,SE,138,5.0,12.0,29,0.00,,CLR,0.00,758.00,VWS V14.01,2013-03-15 19:20:00,
2013-03-15 15:25:00,69.4,36.7,29.87,SE,134,4.0,12.0,30,0.00,,CLR,0.00,754.00,VWS V14.01,2013-03-15 19:25:00,
2013-03-15 15:30:00,69.8,38.6,29.86,SE,140,0.0,0.0,32,0.00,,CLR,0.00,729.00,VWS V14.01,2013-03-15 19:30:00,
2013-03-15 15:35:00,69.9,37.1,29.86,West,262,5.0,9.0,30,0.00,,CLR,0.00,703.00,VWS V14.01,2013-03-15 19:35:00,
2013-03-15 15:40:00,70.3,37.4,29.86,SE,125,6.0,11.0,30,0.00,,CLR,0.00,763.00,VWS V14.01,2013-03-15 19:40:00,
2013-03-15 15:45:00,70.6,37.7,29.85,West,267,2.0,11.0,30,0.00,,CLR,0.00,668.00,VWS V14.01,2013-03-15 19:45:00,
2013-03-15 15:50:00,70.9,37.1,29.85,SW,231,6.0,11.0,29,0.00,,CLR,0.00,533.00,VWS V14.01,2013-03-15 19:50:00,
2013-03-15 15:55:00,70.9,37.1,29.85,SSW,213,2.0,11.0,29,0.00,,CLR,0.00,701.00,VWS V14.01,2013-03-15 19:55:00,
2013-03-15 16:00:00,71.1,36.4,29.84,SW,223,0.0,0.0,28,0.00,,CLR,0.00,677.00,VWS V14.01,2013-03-15 20:00:00,
2013-03-15 16:05:00,71.5,37.6,29.84,SSW,200,1.0,6.0,29,0.00,,CLR,0.00,650.00,VWS V14.01,2013-03-15 20:05:00,
2013-03-15 16:10:00,71.6,38.6,29.84,South,182,2.0,6.0,30,0.00,,CLR,0.00,661.00,VWS V14.01,2013-03-15 20:10:00,
2013-03-15 16:15:00,71.6,37.7,29.83,West,271,6.0,14.0,29,0.00,,CLR,0.00,571.00,VWS V14.01,2013-03-15 20:15:00,
2013-03-15 16:20:00,71.5,38.5,29.83,SSW,207,1.0,14.0,30,0.00,,CLR,0.00,473.00,VWS V14.01,2013-03-15 20:20:00,
2013-03-15 16:25:00,71.3,37.4,29.83,WSW,254,3.0,14.0,29,0.00,,CLR,0.00,552.00,VWS V14.01,2013-03-15 20:25:00,
2013-03-15 16:30:00,71.5,37.6,29.83,SW,225,7.0,14.0,29,0.00,,CLR,0.00,548.00,VWS V14.01,2013-03-15 20:30:00,
2013-03-15 16:35:00,71.8,37.9,29.83,SW,223,3.0,11.0,29,0.00,,CLR,0.00,540.00,VWS V14.01,2013-03-15 20:35:00,
2013-03-15 16:40:00,71.8,37.9,29.83,SW,227,6.0,12.0,29,0.00,,CLR,0.00,563.00,VWS V14.01,2013-03-15 20:40:00,
2013-03-15 16:45:00,71.6,39.4,29.83,WSW,257,0.0,14.0,31,0.00,,CLR,0.00,436.00,VWS V14.01,2013-03-15 20:45:00,
2013-03-15 16:50:00,71.8,38.7,29.83,West,273,0.0,14.0,30,0.00,,CLR,0.00,585.00,VWS V14.01,2013-03-15 20:50:00,
2013-03-15 16:55:00,71.8,39.6,29.83,WSW,257,4.0,14.0,31,0.00,,CLR,0.00,520.00,VWS V14.01,2013-03-15 20:55:00,
2013-03-15 17:00:00,72.0,39.7,29.82,West,273,3.0,14.0,31,0.00,,CLR,0.00,468.00,VWS V14.01,2013-03-15 21:00:00,
2013-03-15 17:05:00,72.1,39.8,29.82,WSW,254,4.0,12.0,31,0.00,,CLR,0.00,359.00,VWS V14.01,2013-03-15 21:05:00,
2013-03-15 17:10:00,72.3,37.4,29.82,WNW,287,4.0,12.0,28,0.00,,CLR,0.00,432.00,VWS V14.01,2013-03-15 21:10:00,
2013-03-15 17:15:00,72.5,37.6,29.82,NW,325,3.0,12.0,28,0.00,,CLR,0.00,450.00,VWS V14.01,2013-03-15 21:15:00,
2013-03-15 17:20:00,73.0,38.0,29.82,WSW,251,0.0,12.0,28,0.00,,CLR,0.00,98.00,VWS V14.01,2013-03-15 21:20:00,
2013-03-15 17:25:00,72.7,37.8,29.82,WSW,250,3.0,13.0,28,0.00,,CLR,0.00,104.00,VWS V14.01,2013-03-15 21:25:00,
2013-03-15 17:30:00,72.5,41.0,29.81,WNW,291,8.0,13.0,32,0.00,,CLR,0.00,396.00,VWS V14.01,2013-03-15 21:30:00,
2013-03-15 17:35:00,72.3,39.2,29.81,SW,235,0.0,11.0,30,0.00,,CLR,0.00,90.00,VWS V14.01,2013-03-15 21:35:00,
2013-03-15 17:40:00,72.5,39.3,29.81,WSW,254,0.0,11.0,30,0.00,,CLR,0.00,369.00,VWS V14.01,2013-03-15 21:40:00,
2013-03-15 17:45:00,72.5,38.5,29.81,SW,234,3.0,11.0,29,0.00,,CLR,0.00,297.00,VWS V14.01,2013-03-15 21:45:00,
2013-03-15 17:50:00,72.5,36.7,29.81,WNW,291,5.0,11.0,27,0.00,,CLR,0.00,190.00,VWS V14.01,2013-03-15 21:50:00,
2013-03-15 17:55:00,72.5,37.6,29.81,WNW,294,8.0,22.0,28,0.00,,CLR,0.00,221.00,VWS V14.01,2013-03-15 21:55:00,
2013-03-15 18:00:00,72.7,35.9,29.80,West,265,0.0,1.0,26,0.00,,CLR,0.00,274.00,VWS V14.01,2013-03-15 22:00:00,
2013-03-15 18:05:00,72.8,36.9,29.80,WSW,240,5.0,9.0,27,0.00,,FEW100,0.00,253.00,VWS V14.01,2013-03-15 22:05:00,
2013-03-15 18:10:00,73.0,36.1,29.80,WSW,254,6.0,13.0,26,0.00,,FEW100,0.00,127.00,VWS V14.01,2013-03-15 22:10:00,
2013-03-15 18:15:00,72.8,36.9,29.80,WSW,254,5.0,13.0,27,0.00,,FEW100,0.00,132.00,VWS V14.01,2013-03-15 22:15:00,
2013-03-15 18:20:00,72.8,37.8,29.80,West,259,3.0,16.0,28,0.00,,FEW100,0.00,174.00,VWS V14.01,2013-03-15 22:20:00,
2013-03-15 18:25:00,72.7,37.8,29.80,SW,236,1.0,16.0,28,0.00,,FEW100,0.00,114.00,VWS V14.01,2013-03-15 22:25:00,
2013-03-15 18:30:00,72.5,37.6,29.81,WSW,252,5.0,16.0,28,0.00,,FEW100,0.00,179.00,VWS V14.01,2013-03-15 22:30:00,
2013-03-15 18:35:00,72.5,38.5,29.81,West,261,4.0,17.0,29,0.00,,FEW100,0.00,206.00,VWS V14.01,2013-03-15 22:35:00,
2013-03-15 18:40:00,72.7,37.8,29.81,West,273,7.0,17.0,28,0.00,,FEW100,0.00,192.00,VWS V14.01,2013-03-15 22:40:00,
2013-03-15 18:45:00,72.8,39.6,29.81,WSW,237,1.0,17.0,30,0.00,,FEW100,0.00,181.00,VWS V14.01,2013-03-15 22:45:00,
2013-03-15 18:50:00,72.7,37.8,29.81,West,263,7.0,17.0,28,0.00,,FEW100,0.00,105.00,VWS V14.01,2013-03-15 22:50:00,
2013-03-15 18:55:00,72.3,39.2,29.81,WNW,291,5.0,17.0,30,0.00,,FEW100,0.00,102.00,VWS V14.01,2013-03-15 22:55:00,
2013-03-15 19:00:00,72.1,38.1,29.81,West,280,12.0,18.0,29,0.00,,FEW100,0.00,91.00,VWS V14.01,2013-03-15 23:00:00,
2013-03-15 19:05:00,72.0,38.0,29.81,WSW,258,3.0,12.0,29,0.00,,FEW100,0.00,77.00,VWS V14.01,2013-03-15 23:05:00,
2013-03-15 19:10:00,71.6,39.4,29.81,West,261,4.0,17.0,31,0.00,,FEW100,0.00,39.00,VWS V14.01,2013-03-15 23:10:00,
2013-03-15 19:15:00,71.1,38.1,29.82,WNW,282,5.0,18.0,30,0.00,,FEW100,0.00,35.00,VWS V14.01,2013-03-15 23:15:00,
2013-03-15 19:20:00,70.9,40.4,29.82,West,268,4.0,18.0,33,0.00,,FEW100,0.00,25.00,VWS V14.01,2013-03-15 23:20:00,
2013-03-15 19:25:00,70.6,39.3,29.82,West,269,5.0,18.0,32,0.00,,FEW100,0.00,16.00,VWS V14.01,2013-03-15 23:25:00,
2013-03-15 19:30:00,70.6,39.3,29.82,West,260,6.0,18.0,32,0.00,,FEW100,0.00,11.00,VWS V14.01,2013-03-15 23:30:00,
2013-03-15 19:35:00,70.3,39.9,29.82,West,259,3.0,11.0,33,0.00,,FEW100,0.00,5.00,VWS V14.01,2013-03-15 23:35:00,
2013-03-15 19:40:00,70.1,38.9,29.82,WSW,247,8.0,11.0,32,0.00,,FEW100,0.00,0.00,VWS V14.01,2013-03-15 23:40:00,
2013-03-15 19:45:00,69.9,38.7,29.83,WSW,254,3.0,11.0,32,0.00,,FEW100,0.00,0.00,VWS V14.01,2013-03-15 23:45:00,
2013-03-15 19:50:00,69.8,39.4,29.83,WSW,246,5.0,11.0,33,0.00,,FEW100,0.00,0.00,VWS V14.01,2013-03-15 23:50:00,
2013-03-15 19:55:00,69.6,40.0,29.83,West,269,3.0,16.0,34,0.00,,FEW100,0.00,0.00,VWS V14.01,2013-03-15 23:55:00,
2013-03-15 20:00:00,69.4,40.6,29.83,West,261,0.0,16.0,35,0.00,,FEW100,0.00,0.00,VWS V14.01,2013-03-16 00:00:00,
2013-03-15 20:05:00,69.1,41.8,29.83,WSW,257,1.0,9.0,37,0.00,,CLR,0.00,0.00,VWS V14.01,2013-03-16 00:05:00,
2013-03-15 20:10:00,68.8,40.1,29.83,WSW,250,7.0,10.0,35,0.00,,CLR,0.00,0.00,VWS V14.01,2013-03-16 00:10:00,
2013-03-15 20:15:00,68.4,39.7,29.83,West,263,2.0,10.0,35,0.00,,CLR,0.00,0.00,VWS V14.01,2013-03-16 00:15:00,
2013-03-15 20:20:00,68.3,40.3,29.83,West,277,0.0,11.0,36,0.00,,CLR,0.00,0.00,VWS V14.01,2013-03-16 00:20:00,
2013-03-15 20:25:00,67.9,39.3,29.83,WSW,252,1.0,11.0,35,0.00,,CLR,0.00,0.00,VWS V14.01,2013-03-16 00:25:00,
2013-03-15 20:30:00,67.9,41.4,29.83,SSW,207,0.0,11.0,38,0.00,,CLR,0.00,0.00,VWS V14.01,2013-03-16 00:30:00,
2013-03-15 20:35:00,67.6,40.4,29.83,SSW,205,0.0,5.0,37,0.00,,CLR,0.00,0.00,VWS V14.01,2013-03-16 00:35:00,
2013-03-15 20:40:00,67.4,40.2,29.83,WSW,254,0.0,6.0,37,0.00,,CLR,0.00,0.00,VWS V14.01,2013-03-16 00:40:00,
2013-03-15 20:45:00,67.3,40.8,29.83,West,279,0.0,6.0,38,0.00,,CLR,0.00,0.00,VWS V14.01,2013-03-16 00:45:00,
2013-03-15 20:50:00,67.1,42.0,29.83,West,263,1.0,6.0,40,0.00,,CLR,0.00,0.00,VWS V14.01,2013-03-16 00:50:00,
2013-03-15 20:55:00,67.1,40.7,29.83,West,275,0.0,6.0,38,0.00,,CLR,0.00,0.00,VWS V14.01,2013-03-16 00:55:00,
2013-03-15 21:00:00,66.9,40.5,29.83,West,278,0.0,6.0,38,0.00,,CLR,0.00,0.00,VWS V14.01,2013-03-16 01:00:00,
2013-03-15 21:05:00,66.6,41.5,29.83,SW,224,0.0,2.0,40,0.00,,CLR,0.00,0.00,VWS V14.01,2013-03-16 01:05:00,
2013-03-15 21:10:00,66.4,42.0,29.83,SW,224,0.0,2.0,41,0.00,,CLR,0.00,0.00,VWS V14.01,2013-03-16 01:10:00,
2013-03-15 21:15:00,66.3,42.5,29.83,SW,224,0.0,2.0,42,0.00,,CLR,0.00,0.00,VWS V14.01,2013-03-16 01:15:00,
2013-03-15 21:20:00,65.8,42.7,29.83,SW,224,0.0,2.0,43,0.00,,CLR,0.00,0.00,VWS V14.01,2013-03-16 01:20:00,
2013-03-15 21:25:00,65.5,41.8,29.83,SW,224,0.0,2.0,42,0.00,,CLR,0.00,0.00,VWS V14.01,2013-03-16 01:25:00,
2013-03-15 21:30:00,65.0,42.0,29.84,SW,224,0.0,2.0,43,0.00,,CLR,0.00,0.00,VWS V14.01,2013-03-16 01:30:00,
2013-03-15 21:35:00,64.7,42.9,29.84,SW,224,0.0,0.0,45,0.00,,CLR,0.00,0.00,VWS V14.01,2013-03-16 01:35:00,
2013-03-15 21:40:00,64.2,45.7,29.84,SW,224,0.0,0.0,51,0.00,,CLR,0.00,0.00,VWS V14.01,2013-03-16 01:40:00,
2013-03-15 21:45:00,63.5,48.0,29.84,SW,224,0.0,0.0,57,0.00,,CLR,0.00,0.00,VWS V14.01,2013-03-16 01:45:00,
2013-03-15 21:50:00,62.1,46.2,29.84,SW,224,0.0,0.0,56,0.00,,CLR,0.00,0.00,VWS V14.01,2013-03-16 01:50:00,
2013-03-15 21:55:00,61.2,44.9,29.84,SW,224,0.0,0.0,55,0.00,,CLR,0.00,0.00,VWS V14.01,2013-03-16 01:55:00,
2013-03-15 22:00:00,60.7,43.0,29.84,SW,224,0.0,0.0,52,0.00,,CLR,0.00,0.00,VWS V14.01,2013-03-16 02:00:00,
2013-03-15 22:05:00,60.9,43.7,29.84,SW,224,0.0,0.0,53,0.00,,CLR,0.00,0.00,VWS V14.01,2013-03-16 02:05:00,
2013-03-15 22:10:00,60.5,47.4,29.84,SW,224,0.0,0.0,62,0.00,,CLR,0.00,0.00,VWS V14.01,2013-03-16 02:10:00,
2013-03-15 22:15:00,60.1,46.2,29.83,SW,224,0.0,0.0,60,0.00,,CLR,0.00,0.00,VWS V14.01,2013-03-16 02:15:00,
2013-03-15 22:20:00,59.6,45.3,29.83,SW,224,0.0,0.0,59,0.00,,CLR,0.00,0.00,VWS V14.01,2013-03-16 02:20:00,
2013-03-15 22:25:00,59.3,44.1,29.83,SW,224,0.0,0.0,57,0.00,,CLR,0.00,0.00,VWS V14.01,2013-03-16 02:25:00,
2013-03-15 22:30:00,59.3,47.1,29.83,SW,224,0.0,0.0,64,0.00,,CLR,0.00,0.00,VWS V14.01,2013-03-16 02:30:00,
2013-03-15 22:35:00,59.2,47.9,29.83,SW,224,0.0,0.0,66,0.00,,CLR,0.00,0.00,VWS V14.01,2013-03-16 02:35:00,
2013-03-15 22:40:00,58.9,45.1,29.83,SW,224,0.0,0.0,60,0.00,,CLR,0.00,0.00,VWS V14.01,2013-03-16 02:40:00,
2013-03-15 22:45:00,58.7,42.1,29.84,SW,224,0.0,0.0,54,0.00,,CLR,0.00,0.00,VWS V14.01,2013-03-16 02:45:00,
2013-03-15 22:50:00,58.7,45.7,29.84,SW,224,0.0,0.0,62,0.00,,CLR,0.00,0.00,VWS V14.01,2013-03-16 02:50:00,
2013-03-15 22:55:00,58.7,44.9,29.84,SW,224,0.0,0.0,60,0.00,,CLR,0.00,0.00,VWS V14.01,2013-03-16 02:55:00,
2013-03-15 23:00:00,58.7,46.6,29.84,SW,224,0.0,1.0,64,0.00,,CLR,0.00,0.00,VWS V14.01,2013-03-16 03:00:00,
2013-03-15 23:05:00,58.6,46.5,29.84,SW,224,0.0,0.0,64,0.00,,CLR,0.00,0.00,VWS V14.01,2013-03-16 03:05:00,
2013-03-15 23:10:00,58.3,44.0,29.84,SW,224,0.0,0.0,59,0.00,,CLR,0.00,0.00,VWS V14.01,2013-03-16 03:10:00,
2013-03-15 23:15:00,58.4,43.2,29.83,SW,224,0.0,0.0,57,0.00,,CLR,0.00,0.00,VWS V14.01,2013-03-16 03:15:00,
2013-03-15 23:20:00,58.7,45.7,29.83,SW,224,0.0,0.0,62,0.00,,CLR,0.00,0.00,VWS V14.01,2013-03-16 03:20:00,
2013-03-15 23:25:00,58.6,45.2,29.83,SW,225,0.0,2.0,61,0.00,,CLR,0.00,0.00,VWS V14.01,2013-03-16 03:25:00,
2013-03-15 23:30:00,58.1,44.7,29.83,SW,225,0.0,2.0,61,0.00,,CLR,0.00,0.00,VWS V14.01,2013-03-16 03:30:00,
2013-03-15 23:35:00,58.0,44.2,29.83,SW,225,0.0,0.0,60,0.00,,CLR,0.00,0.00,VWS V14.01,2013-03-16 03:35:00,
2013-03-15 23:40:00,57.8,44.0,29.83,SW,225,0.0,0.0,60,0.00,,CLR,0.00,0.00,VWS V14.01,2013-03-16 03:40:00,
2013-03-15 23:45:00,57.8,46.1,29.83,SW,225,0.0,0.0,65,0.00,,CLR,0.00,0.00,VWS V14.01,2013-03-16 03:45:00,
2013-03-15 23:50:00,57.5,45.4,29.83,SW,225,0.0,0.0,64,0.00,,CLR,0.00,0.00,VWS V14.01,2013-03-16 03:50:00,
2013-03-15 23:55:00,57.3,45.7,29.83,SW,225,0.0,0.0,65,0.00,,CLR,0.00,0.00,VWS V14.01,2013-03-16 03:55:00,